• In Spain
  • List of Countries
  • For 7 days
  • Water Temperature
  • Satellite Maps
  • Weather Map
  • Weather Widgets
  • user-avatar
    Login

    Hourly Weather Yulara

    Today, 23 June, Saturday

    Time Temperature Precipitation Wind Pressure Humidity
    00:00 +8°C° 0 mm 5 mps 724 mmHg 44%
    01:00 +8°C° 0 mm 5 mps 724 mmHg 47%
    02:00 +7°C° 0 mm 4 mps 724 mmHg 50%
    03:00 +7°C° 0 mm 4 mps 724 mmHg 53%
    04:00 +6°C° 0 mm 4 mps 724 mmHg 55%
    05:00 +6°C° 0 mm 4 mps 724 mmHg 58%
    06:00 +6°C° 0 mm 4 mps 724 mmHg 61%
    07:00 +7°C° 0 mm 4 mps 725 mmHg 56%
    08:00 +10°C° 0 mm 4 mps 725 mmHg 52%
    09:00 +12°C° 0 mm 5 mps 725 mmHg 44%
    10:00 +13°C° 0 mm 5 mps 725 mmHg 40%
    11:00 +14°C° 0 mm 4 mps 725 mmHg 36%
    12:00 +17°C° 0 mm 4 mps 724 mmHg 32%
    13:00 +17°C° 0 mm 4 mps 724 mmHg 30%
    14:00 +17°C° 0 mm 5 mps 724 mmHg 27%
    15:00 +17°C° 0 mm 5 mps 723 mmHg 25%
    16:00 +17°C° 0 mm 4 mps 723 mmHg 28%
    17:00 +15°C° 0 mm 4 mps 723 mmHg 30%
    18:00 +13°C° 0 mm 4 mps 723 mmHg 33%
    19:00 +12°C° 0 mm 4 mps 724 mmHg 35%
    20:00 +12°C° 0 mm 4 mps 724 mmHg 37%
    21:00 +11°C° 0 mm 4 mps 724 mmHg 40%
    22:00 +10°C° 0 mm 4 mps 724 mmHg 42%
    23:00 +10°C° 0 mm 4 mps 724 mmHg 44%

    Tomorrow, 24 June, Sunday

    Time Temperature Precipitation Wind Pressure Humidity
    00:00 +8°C° 0 mm 4 mps 725 mmHg 46%
    01:00 +8°C° 0 mm 4 mps 725 mmHg 47%
    02:00 +7°C° 0 mm 4 mps 725 mmHg 49%
    03:00 +7°C° 0 mm 4 mps 724 mmHg 51%
    04:00 +6°C° 0 mm 4 mps 724 mmHg 52%
    05:00 +6°C° 0 mm 4 mps 724 mmHg 53%
    06:00 +6°C° 0 mm 4 mps 724 mmHg 53%
    07:00 +7°C° 0 mm 4 mps 725 mmHg 48%
    08:00 +10°C° 0 mm 4 mps 725 mmHg 43%
    09:00 +11°C° 0 mm 4 mps 725 mmHg 38%
    10:00 +13°C° 0 mm 5 mps 725 mmHg 34%
    11:00 +14°C° 0 mm 5 mps 724 mmHg 30%
    12:00 +16°C° 0 mm 6 mps 724 mmHg 26%
    13:00 +17°C° 0 mm 6 mps 724 mmHg 24%
    14:00 +17°C° 0 mm 6 mps 723 mmHg 22%
    15:00 +19°C° 0 mm 6 mps 723 mmHg 20%
    16:00 +16°C° 0 mm 5 mps 723 mmHg 23%
    17:00 +15°C° 0 mm 5 mps 723 mmHg 25%
    18:00 +13°C° 0 mm 4 mps 723 mmHg 27%
    19:00 +12°C° 0 mm 4 mps 723 mmHg 27%
    20:00 +11°C° 0 mm 4 mps 724 mmHg 28%
    21:00 +10°C° 0 mm 4 mps 724 mmHg 29%
    22:00 +10°C° 0 mm 4 mps 724 mmHg 30%
    23:00 +8°C° 0 mm 4 mps 724 mmHg 32%

    Day after tomorrow, 25 June, Monday

    Time Temperature Precipitation Wind Pressure Humidity
    00:00 +7°C° 0 mm 4 mps 724 mmHg 33%
    01:00 +7°C° 0 mm 4 mps 724 mmHg 35%
    02:00 +7°C° 0 mm 4 mps 724 mmHg 38%
    03:00 +7°C° 0 mm 3 mps 724 mmHg 40%
    04:00 +7°C° 0 mm 3 mps 724 mmHg 42%
    05:00 +7°C° 0 mm 3 mps 724 mmHg 43%
    06:00 +5°C° 0 mm 3 mps 724 mmHg 45%
    07:00 +7°C° 0 mm 4 mps 725 mmHg 41%
    08:00 +10°C° 0 mm 4 mps 725 mmHg 38%
    09:00 +11°C° 0 mm 4 mps 725 mmHg 34%
    10:00 +13°C° 0 mm 4 mps 725 mmHg 31%
    11:00 +15°C° 0 mm 5 mps 725 mmHg 28%
    12:00 +16°C° 0 mm 5 mps 724 mmHg 25%
    13:00 +18°C° 0 mm 4 mps 724 mmHg 24%
    14:00 +18°C° 0 mm 4 mps 723 mmHg 23%
    15:00 +19°C° 0 mm 4 mps 723 mmHg 22%
    16:00 +17°C° 0 mm 4 mps 723 mmHg 24%
    17:00 +15°C° 0 mm 4 mps 723 mmHg 27%
    18:00 +13°C° 0 mm 4 mps 723 mmHg 30%
    19:00 +13°C° 0 mm 4 mps 723 mmHg 33%
    20:00 +12°C° 0 mm 5 mps 724 mmHg 36%
    21:00 +10°C° 0 mm 5 mps 725 mmHg 39%
    22:00 +9°C° 0 mm 5 mps 725 mmHg 50%
    23:00 +8°C° 0 mm 4 mps 725 mmHg 60%

    26 June, Tuesday

    Time Temperature Precipitation Wind Pressure Humidity
    00:00 +7°C° 0 mm 4 mps 725 mmHg 71%
    01:00 +7°C° 0 mm 4 mps 725 mmHg 75%
    02:00 +6°C° 0 mm 4 mps 725 mmHg 80%
    03:00 +6°C° 0 mm 4 mps 724 mmHg 85%
    04:00 +5°C° 0 mm 3 mps 725 mmHg 86%
    05:00 +5°C° 0 mm 3 mps 725 mmHg 86%
    06:00 +5°C° 0 mm 3 mps 725 mmHg 87%
    07:00 +6°C° 0 mm 4 mps 725 mmHg 80%
    08:00 +7°C° 0 mm 4 mps 726 mmHg 72%
    09:00 +9°C° 0 mm 5 mps 726 mmHg 65%
    10:00 +12°C° 0 mm 5 mps 726 mmHg 56%
    11:00 +14°C° 0 mm 5 mps 726 mmHg 48%
    12:00 +16°C° 0 mm 5 mps 725 mmHg 39%
    13:00 +16°C° 0 mm 5 mps 725 mmHg 36%
    14:00 +17°C° 0 mm 5 mps 724 mmHg 33%
    15:00 +19°C° 0 mm 5 mps 724 mmHg 30%
    16:00 +16°C° 0 mm 5 mps 724 mmHg 33%
    17:00 +15°C° 0 mm 4 mps 724 mmHg 36%
    18:00 +13°C° 0 mm 4 mps 724 mmHg 39%
    19:00 +12°C° 0 mm 4 mps 724 mmHg 42%
    20:00 +11°C° 0 mm 4 mps 725 mmHg 45%
    21:00 +10°C° 0 mm 5 mps 726 mmHg 48%
    22:00 +9°C° 0 mm 5 mps 726 mmHg 51%
    23:00 +8°C° 0 mm 5 mps 726 mmHg 53%

    27 June, Wednesday

    Time Temperature Precipitation Wind Pressure Humidity
    00:00 +8°C° 0 mm 5 mps 726 mmHg 56%
    01:00 +7°C° 0 mm 4 mps 725 mmHg 59%
    02:00 +7°C° 0 mm 4 mps 725 mmHg 61%
    03:00 +6°C° 0 mm 4 mps 725 mmHg 64%
    04:00 +6°C° 0 mm 4 mps 725 mmHg 66%
    05:00 +5°C° 0 mm 4 mps 725 mmHg 69%
    06:00 +5°C° 0 mm 4 mps 725 mmHg 71%
    07:00 +6°C° 0 mm 5 mps 726 mmHg 64%
    08:00 +8°C° 0 mm 6 mps 726 mmHg 58%
    09:00 +9°C° 0 mm 6 mps 726 mmHg 51%
    10:00 +11°C° 0 mm 6 mps 726 mmHg 45%
    11:00 +14°C° 0 mm 6 mps 725 mmHg 38%
    12:00 +16°C° 0 mm 6 mps 725 mmHg 31%
    13:00 +16°C° 0 mm 6 mps 724 mmHg 28%
    14:00 +17°C° 0 mm 5 mps 724 mmHg 25%
    15:00 +19°C° 0 mm 5 mps 723 mmHg 22%
    16:00 +17°C° 0 mm 4 mps 723 mmHg 25%
    17:00 +15°C° 0 mm 4 mps 723 mmHg 27%
    18:00 +13°C° 0 mm 3 mps 723 mmHg 30%
    19:00 +12°C° 0 mm 4 mps 723 mmHg 31%
    20:00 +11°C° 0 mm 4 mps 723 mmHg 33%
    21:00 +10°C° 0 mm 4 mps 724 mmHg 35%
    22:00 +10°C° 0 mm 4 mps 724 mmHg 37%
    23:00 +8°C° 0 mm 4 mps 724 mmHg 38%

    28 June, Thursday

    Time Temperature Precipitation Wind Pressure Humidity
    00:00 +7°C° 0 mm 4 mps 723 mmHg 40%
    01:00 +7°C° 0 mm 4 mps 723 mmHg 42%
    02:00 +6°C° 0 mm 4 mps 723 mmHg 44%
    03:00 +5°C° 0 mm 3 mps 723 mmHg 46%
    04:00 +5°C° 0 mm 3 mps 723 mmHg 48%
    05:00 +4°C° 0 mm 3 mps 723 mmHg 50%
    06:00 +4°C° 0 mm 3 mps 723 mmHg 53%
    07:00 +5°C° 0 mm 3 mps 723 mmHg 48%
    08:00 +8°C° 0 mm 3 mps 723 mmHg 44%
    09:00 +9°C° 0 mm 3 mps 724 mmHg 39%
    10:00 +11°C° 0 mm 3 mps 723 mmHg 35%
    11:00 +14°C° 0 mm 2 mps 723 mmHg 30%
    12:00 +16°C° 0 mm 2 mps 722 mmHg 25%
    13:00 +17°C° 0 mm 2 mps 722 mmHg 23%
    14:00 +19°C° 0 mm 1 mps 721 mmHg 21%
    15:00 +20°C° 0 mm 1 mps 720 mmHg 19%
    16:00 +18°C° 0 mm 1 mps 720 mmHg 23%
    17:00 +14°C° 0 mm 1 mps 720 mmHg 27%
    18:00 +12°C° 0 mm 1 mps 720 mmHg 31%
    19:00 +11°C° 0 mm 1 mps 720 mmHg 32%
    20:00 +11°C° 0 mm 1 mps 720 mmHg 33%
    21:00 +10°C° 0 mm 1 mps 721 mmHg 34%
    22:00 +10°C° 0 mm 1 mps 720 mmHg 36%
    23:00 +9°C° 0 mm 1 mps 720 mmHg 38%
    Show more